Dewpoint
63 64 65 66 67 69 70 70 71 72 71 69 70 70 68 68 69 71 74 75 74 74 75 73 73 73 73 73 74 72 72 70 71 69 67 69 69 67 70 70 71 70 69
62 64 64 65 66 68 69 70 70 71 71 70 71 71 71 71 70 71 73 74 74 75 74 75 73 74 72 74 73 73 71 70 71 67 68 67 68 70 70 70 70 69 68
59 61 63 64 65 66 69 70 71 72 72 72 72 72 72 72 71 71 71 73 74 74 75 75 74 74 73 73 74 73 73 73 70 69 67 66 65 66 70 71 71 70 70
58 59 59 62 63 66 68 69 71 71 71 73 72 73 70 69 69 70 71 72 74 74 74 75 75 75 72 73 73 73 72 72 69 70 69 69 69 66 64 69 71 72 71
56 57 58 59 61 64 66 68 71 73 72 73 73 71 72 70 70 70 73 74 74 74 73 74 75 75 73 73 74 74 73 71 70 71 69 70 69 70 69 64 69 69 72
57 58 59 60 61 63 65 67 71 72 73 72 72 73 73 72 70 70 69 70 70 72 74 74 74 74 73 73 73 74 74 73 72 71 71 69 69 70 68 68 67 67 69
56 58 59 60 61 63 65 66 70 70 71 71 71 72 73 73 72 72 69 71 69 70 72 75 74 73 74 74 74 74 74 74 72 73 70 70 71 72 71 70 67 69 69
53 57 60 61 63 65 66 67 68 69 70 71 72 73 73 70 70 70 69 69 68 70 73 74 74 75 75 74 75 73 73 73 73 73 73 71 71 71 71 70 69 67 69
58 60 61 62 63 65 66 67 69 70 70 69 71 72 72 72 71 73 72 70 72 70 74 74 74 75 75 75 75 73 74 74 74 73 73 73 71 74 73 72 71 69 67
61 61 61 62 64 64 65 67 69 71 71 70 70 71 72 73 72 72 72 72 72 72 74 75 74 74 75 75 75 73 74 75 73 73 74 74 73 74 73 72 72 71 69
61 62 63 65 66 67 67 67 70 70 70 69 71 71 71 71 72 71 72 73 73 73 74 75 74 74 74 74 75 75 75 75 75 74 74 75 76 73 72 73 72 71 71
62 63 66 67 69 70 70 70 69 69 71 71 69 70 73 74 71 71 71 73 73 73 74 74 75 75 75 75 75 75 75 75 75 76 75 75 74 75 75 73 73 71 71
62 62 63 65 67 69 70 70 71 70 72 69 69 69 67 68 71 73 73 74 75 75 74 74 75 75 75 76 76 76 76 76 75 75 75 75 74 76 77 74 72 72 72
62 61 62 61 64 65 68 70 71 73 71 68 68 68 70 70 70 71 72 73 75 76 75 75 75 75 75 75 75 75 76 76 75 76 76 75 75 75 76 74 74 73 72
60 61 59 61 64 66 65 66 66 66 71 73 71 72 73 73 74 75 75 76 76 75 76 76 76 76 75 73 75 75 75 75 75 76 76 76 75 73 73 73 74 75 73
60 61 62 59 62 62 62 63 67 70 74 74 72 72 75 76 76 77 77 77 77 77 77 77 77 76 74 70 70 73 75 75 75 75 77 77 74 73 70 70 70 73 74
60 61 63 64 62 64 63 63 70 74 76 76 74 75 75 75 76 77 78 78 78 78 78 78 78 77 77 70 69 70 74 75 75 77 77 76 73 74 76 70 68 69 68
58 61 60 62 64 63 63 64 70 74 75 75 75 73 70 69 74 74 74 76 77 78 77 77 78 78 77 69 67 69 75 76 76 77 77 77 76 75 75 75 74 74 74
56 59 60 60 62 62 64 64 68 70 70 69 70 71 72 72 70 69 70 72 73 73 74 76 78 77 78 66 66 69 75 75 77 77 77 77 76 69 68 74 73 73 72
55 56 57 59 59 62 62 66 67 68 68 68 68 70 70 68 68 68 70 71 71 70 69 72 74 74 77 69 64 68 75 75 75 77 78 69 73 65 64 74 74 73 72
53 55 55 56 58 60 62 64 65 66 67 68 68 68 69 69 69 70 71 71 70 71 71 71 73 77 76 76 62 62 75 75 76 75 75 75 63 60 60 64 75 73 76
52 52 53 53 54 57 58 62 64 66 67 68 69 69 69 66 66 69 70 70 71 70 70 70 72 72 72 65 60 61 66 69 72 70 72 70 62 60 58 60 65 62 66
53 53 54 55 55 56 57 59 62 65 66 66 68 67 67 67 68 69 69 66 69 66 65 64 69 70 69 67 60 61 62 63 71 71 68 62 58 57 59 59 61 61 70
54 55 56 56 57 59 59 59 60 62 63 65 67 68 67 66 68 64 65 64 64 64 63 63 68 69 68 67 66 66 66 62 67 65 66 64 63 64 67 65 65 69 70
54 55 56 57 57 59 60 60 61 61 60 61 63 65 64 66 64 65 64 64 66 62 62 64 65 68 67 67 64 64 67 73 67 65 67 68 68 68 68 68 68 69 70
56 57 57 58 58 59 59 61 61 60 59 59 56 57 58 62 63 62 63 57 56 55 53 52 58 65 59 55 53 52 52 52 54 64 65 66 68 68 68 68 68 68 68
Lifted_Index
-5 -5 -4 -4 -3 -3 -3 -3 -3 -3 -3 -3 -3 -4 -4 -4 -4 -4 -4 -5 -5 -5 -5 -5 -5 -4 -4 -4 -4 -3 -3 -2 -1 -1 -1 -1 -1 -1 -1 -1 -1 -0 -0
-5 -5 -5 -4 -4 -4 -4 -3 -3 -3 -3 -3 -4 -4 -4 -4 -4 -4 -4 -5 -5 -5 -5 -5 -5 -5 -4 -4 -4 -4 -3 -3 -1 -1 -1 -1 -1 -1 -1 -1 -1 -0 -0
-5 -5 -5 -5 -4 -4 -4 -4 -3 -3 -3 -4 -4 -4 -4 -4 -4 -5 -5 -5 -5 -5 -5 -5 -5 -5 -5 -4 -4 -4 -4 -3 -2 -1 -1 -2 -2 -1 -2 -2 -2 -1 -0
-4 -4 -4 -4 -4 -4 -4 -4 -4 -3 -3 -4 -4 -4 -4 -4 -5 -5 -5 -5 -5 -5 -5 -6 -6 -5 -5 -5 -4 -4 -4 -3 -2 -2 -2 -2 -2 -2 -2 -2 -2 -2 -1
-4 -4 -4 -4 -4 -4 -4 -4 -4 -4 -4 -4 -4 -4 -4 -5 -5 -5 -5 -6 -6 -6 -6 -6 -6 -5 -5 -5 -5 -4 -4 -4 -3 -3 -2 -3 -2 -2 -2 -2 -2 -2 -2
-3 -3 -4 -4 -5 -4 -4 -4 -5 -5 -5 -4 -4 -5 -5 -5 -4 -5 -5 -5 -6 -6 -6 -6 -6 -5 -5 -5 -5 -5 -4 -4 -4 -4 -3 -3 -3 -3 -3 -2 -2 -2 -2
-3 -3 -4 -4 -4 -5 -5 -5 -5 -5 -5 -5 -5 -5 -5 -5 -4 -4 -4 -5 -5 -5 -6 -6 -6 -5 -5 -5 -5 -5 -5 -5 -5 -4 -4 -4 -4 -3 -3 -3 -2 -2 -2
-3 -4 -4 -4 -4 -5 -5 -5 -5 -5 -5 -5 -5 -5 -5 -5 -4 -4 -4 -4 -4 -5 -5 -6 -6 -6 -5 -5 -5 -5 -5 -5 -5 -5 -5 -4 -4 -4 -3 -3 -2 -2 -2
-4 -4 -5 -5 -5 -5 -5 -6 -5 -5 -5 -5 -5 -5 -5 -5 -5 -5 -4 -4 -4 -5 -5 -6 -6 -6 -6 -6 -6 -6 -6 -6 -5 -5 -5 -5 -5 -4 -4 -3 -3 -3 -3
-5 -5 -5 -5 -5 -5 -6 -6 -5 -5 -5 -5 -5 -5 -5 -5 -5 -5 -5 -5 -5 -5 -5 -6 -6 -6 -6 -6 -6 -6 -6 -6 -6 -6 -6 -6 -6 -5 -4 -4 -4 -4 -3
-5 -5 -5 -6 -6 -6 -6 -6 -5 -5 -5 -5 -5 -5 -5 -5 -5 -5 -5 -5 -5 -5 -6 -6 -6 -6 -7 -7 -7 -6 -6 -7 -7 -6 -7 -7 -6 -6 -5 -5 -5 -4 -4
-5 -5 -5 -6 -6 -6 -6 -6 -6 -6 -5 -5 -4 -5 -5 -5 -5 -5 -5 -6 -6 -6 -6 -6 -7 -7 -7 -7 -7 -7 -7 -7 -7 -7 -7 -7 -7 -6 -6 -6 -6 -5 -5
-5 -5 -5 -6 -6 -6 -6 -6 -7 -6 -5 -4 -4 -4 -4 -5 -5 -6 -6 -6 -7 -7 -7 -7 -7 -7 -8 -8 -8 -8 -8 -8 -8 -8 -8 -7 -7 -7 -7 -7 -6 -6 -6
-5 -5 -5 -6 -6 -6 -6 -6 -7 -7 -6 -5 -4 -4 -5 -5 -6 -6 -6 -7 -7 -7 -7 -7 -7 -7 -8 -8 -8 -8 -8 -8 -8 -8 -8 -8 -8 -8 -8 -7 -7 -7 -7
-5 -5 -5 -5 -5 -5 -5 -5 -6 -6 -7 -7 -6 -7 -7 -8 -8 -8 -8 -8 -8 -8 -8 -7 -7 -8 -8 -8 -8 -8 -9 -9 -9 -9 -8 -8 -8 -7 -7 -7 -7 -7 -7
-5 -5 -5 -5 -5 -4 -4 -5 -6 -7 -9 -9 -8 -8 -9 -9 -10 -10 -10 -10 -10 -10 -9 -8 -8 -8 -8 -8 -8 -8 -8 -9 -9 -9 -9 -8 -7 -7 -7 -7 -6 -6 -6
-5 -5 -6 -5 -5 -4 -4 -5 -7 -9 -10 -10 -9 -9 -8 -8 -9 -10 -11 -11 -11 -11 -10 -10 -9 -9 -9 -8 -8 -8 -8 -8 -9 -9 -9 -8 -8 -7 -7 -7 -6 -6 -6
-5 -5 -5 -6 -5 -5 -4 -5 -7 -9 -10 -10 -9 -9 -7 -7 -7 -9 -9 -10 -10 -10 -10 -10 -10 -10 -9 -9 -8 -8 -8 -9 -9 -9 -9 -9 -8 -8 -7 -7 -6 -6 -6
-5 -5 -5 -5 -5 -5 -4 -5 -6 -8 -8 -8 -8 -8 -7 -7 -6 -6 -7 -8 -8 -8 -9 -9 -9 -10 -10 -9 -8 -8 -8 -9 -10 -10 -10 -9 -9 -8 -7 -7 -7 -6 -6
-5 -5 -5 -5 -5 -4 -4 -5 -6 -6 -6 -6 -6 -7 -7 -6 -6 -5 -6 -6 -6 -6 -7 -7 -8 -9 -10 -9 -9 -8 -9 -9 -10 -10 -9 -8 -8 -7 -7 -7 -7 -6 -6
-4 -4 -4 -4 -4 -3 -4 -4 -5 -5 -5 -5 -5 -5 -5 -5 -5 -5 -5 -5 -5 -5 -5 -6 -7 -8 -9 -10 -9 -9 -9 -9 -9 -9 -8 -7 -7 -6 -6 -6 -6 -6 -6
-2 -2 -2 -2 -2 -2 -2 -2 -3 -3 -3 -3 -4 -4 -4 -4 -4 -4 -4 -4 -4 -4 -4 -5 -6 -7 -8 -9 -9 -9 -9 -9 -9 -8 -8 -7 -6 -5 -4 -5 -5 -6 -6
0 0 -0 -1 -1 -1 -0 -0 -1 -2 -2 -2 -3 -3 -3 -3 -3 -3 -3 -3 -3 -2 -2 -3 -4 -5 -6 -8 -8 -9 -9 -8 -8 -7 -6 -5 -4 -2 -2 -3 -4 -4 -5
2 2 2 1 1 1 1 1 0 -0 -1 -1 -2 -3 -3 -2 -2 -3 -3 -2 -2 -2 -1 -2 -3 -4 -4 -6 -7 -8 -8 -8 -7 -5 -4 -2 -2 -1 -1 -2 -2 -3 -3
3 3 3 3 2 2 2 1 1 1 -0 -1 -2 -2 -3 -3 -2 -2 -2 -2 -1 -1 -0 -1 -1 -2 -3 -4 -5 -6 -7 -7 -6 -4 -2 -2 -1 -1 -1 -1 -1 -1 -2
4 3 3 3 3 2 2 2 1 1 1 -0 -1 -2 -3 -3 -3 -2 -2 -1 0 1 1 0 -0 -1 -2 -3 -4 -5 -6 -7 -6 -4 -3 -2 -2 -2 -1 -1 -1 -1 -1